Terug naar catalogus

STARLINK-34043

ActiefCommunicatieVLEO
NORAD 63823·PAYLOAD·🇺🇸 United States

Gelanceerd May 4, 2025 vanaf Cape Canaveral Space Force Station

Loading…

Volgende Passages (komende 24 uur)

TLE

VersSource: CelesTrak SupGP

Epoch: Sep 14, 2026, 20:49 UTC

1 63823C 25092V   26257.86784722 -.00000119  00000+0 -43190-5 0  2577
2 63823  43.0000 180.1191 0001539 263.4114  88.1073 15.27582821    10

Volg STARLINK-34043 in realtime met AllMySat

Download on the App Store